Year,Month,Day,Hour,Minute,Value (Times are PST for temperature in C)
2007,05,18,00,00,11.60
2007,05,18,00,01,11.60
2007,05,18,00,02,11.60
2007,05,18,00,03,11.60
2007,05,18,00,04,11.60
2007,05,18,00,05,11.60
2007,05,18,00,06,11.40
2007,05,18,00,07,11.40
2007,05,18,00,08,11.40
2007,05,18,00,09,11.40
2007,05,18,00,10,11.40
2007,05,18,00,11,11.40
2007,05,18,00,12,11.40
2007,05,18,00,13,11.40
2007,05,18,00,14,11.40
2007,05,18,00,15,11.40
2007,05,18,00,16,11.30
2007,05,18,00,17,11.30
2007,05,18,00,18,11.30
2007,05,18,00,19,11.30
2007,05,18,00,20,11.30
2007,05,18,00,21,11.30
2007,05,18,00,22,11.30
2007,05,18,00,23,11.30
2007,05,18,00,24,11.20
2007,05,18,00,25,11.20
2007,05,18,00,26,11.20
2007,05,18,00,27,11.20
2007,05,18,00,28,11.20
2007,05,18,00,29,11.20
2007,05,18,00,30,11.20
2007,05,18,00,31,11.10
2007,05,18,00,32,11.10
2007,05,18,00,33,11.10
2007,05,18,00,34,11.10
2007,05,18,00,35,11.10
2007,05,18,00,36,11.10
2007,05,18,00,37,11.10
2007,05,18,00,38,11.10
2007,05,18,00,39,11.10
2007,05,18,00,40,11.10
2007,05,18,00,41,11.10
2007,05,18,00,42,11.10
2007,05,18,00,43,10.90
2007,05,18,00,44,10.90
2007,05,18,00,45,10.90
2007,05,18,00,46,10.90
2007,05,18,00,47,10.90
2007,05,18,00,48,10.90
2007,05,18,00,49,10.90
2007,05,18,00,50,10.90
2007,05,18,00,51,10.90
2007,05,18,00,52,10.80
2007,05,18,00,53,10.80
2007,05,18,00,54,10.80
2007,05,18,00,55,10.80
2007,05,18,00,56,10.80
2007,05,18,00,57,10.80
2007,05,18,00,58,10.70
2007,05,18,00,59,10.70
2007,05,18,01,00,10.70
2007,05,18,01,01,10.70
2007,05,18,01,02,10.70
2007,05,18,01,03,10.60
2007,05,18,01,04,10.60
2007,05,18,01,05,10.60
2007,05,18,01,06,10.60
2007,05,18,01,07,10.60
2007,05,18,01,08,10.60
2007,05,18,01,09,10.60
2007,05,18,01,10,10.60
2007,05,18,01,11,10.60
2007,05,18,01,12,10.60
2007,05,18,01,13,10.60
2007,05,18,01,14,10.60
2007,05,18,01,15,10.60
2007,05,18,01,16,10.60
2007,05,18,01,17,10.60
2007,05,18,01,18,10.60
2007,05,18,01,19,10.60
2007,05,18,01,20,10.60
2007,05,18,01,21,10.60
2007,05,18,01,22,10.60
2007,05,18,01,23,10.60
2007,05,18,01,24,10.60
2007,05,18,01,25,10.60
2007,05,18,01,26,10.60
2007,05,18,01,27,10.60
2007,05,18,01,28,10.60
2007,05,18,01,29,10.60
2007,05,18,01,30,10.60
2007,05,18,01,31,10.60
2007,05,18,01,32,10.60
2007,05,18,01,33,10.60
2007,05,18,01,34,10.60
2007,05,18,01,35,10.60
2007,05,18,01,36,10.60
2007,05,18,01,37,10.60
2007,05,18,01,38,10.60
2007,05,18,01,39,10.50
2007,05,18,01,40,10.40
2007,05,18,01,41,10.40
2007,05,18,01,42,10.40
2007,05,18,01,43,10.40
2007,05,18,01,44,10.40
2007,05,18,01,45,10.40
2007,05,18,01,46,10.40
2007,05,18,01,47,10.30
2007,05,18,01,48,10.30
2007,05,18,01,49,10.30
2007,05,18,01,50,10.30
2007,05,18,01,51,10.20
2007,05,18,01,52,10.20
2007,05,18,01,53,10.20
2007,05,18,01,54,10.20
2007,05,18,01,55,10.20
2007,05,18,01,56,10.10
2007,05,18,01,57,10.10
2007,05,18,01,58,10.10
2007,05,18,01,59,10.10
2007,05,18,02,00,10.10
2007,05,18,02,01,10.10
2007,05,18,02,02,10.10
2007,05,18,02,03,10.00
2007,05,18,02,04,9.90
2007,05,18,02,05,9.90
2007,05,18,02,06,9.90
2007,05,18,02,07,9.90
2007,05,18,02,08,9.90
2007,05,18,02,09,9.90
2007,05,18,02,10,9.90
2007,05,18,02,11,9.90
2007,05,18,02,12,9.90
2007,05,18,02,13,9.90
2007,05,18,02,14,9.90
2007,05,18,02,15,9.90
2007,05,18,02,16,9.90
2007,05,18,02,17,9.90
2007,05,18,02,18,9.90
2007,05,18,02,19,9.90
2007,05,18,02,20,9.90
2007,05,18,02,21,9.90
2007,05,18,02,22,9.80
2007,05,18,02,23,9.80
2007,05,18,02,24,9.80
2007,05,18,02,25,9.80
2007,05,18,02,26,9.80
2007,05,18,02,27,9.70
2007,05,18,02,28,9.70
2007,05,18,02,29,9.70
2007,05,18,02,30,9.70
2007,05,18,02,31,9.70
2007,05,18,02,32,9.70
2007,05,18,02,33,9.70
2007,05,18,02,34,9.70
2007,05,18,02,35,9.70
2007,05,18,02,36,9.70
2007,05,18,02,37,9.70
2007,05,18,02,38,9.70
2007,05,18,02,39,9.70
2007,05,18,02,40,9.70
2007,05,18,02,41,9.70
2007,05,18,02,42,9.70
2007,05,18,02,43,9.70
2007,05,18,02,44,9.70
2007,05,18,02,45,9.70
2007,05,18,02,46,9.70
2007,05,18,02,47,9.70
2007,05,18,02,48,9.70
2007,05,18,02,49,9.70
2007,05,18,02,50,9.70
2007,05,18,02,51,9.60
2007,05,18,02,52,9.60
2007,05,18,02,53,9.60
2007,05,18,02,54,9.60
2007,05,18,02,55,9.60
2007,05,18,02,56,9.60
2007,05,18,02,57,9.60
2007,05,18,02,58,9.60
2007,05,18,02,59,9.50
2007,05,18,03,00,9.50
2007,05,18,03,01,9.50
2007,05,18,03,02,9.50
2007,05,18,03,03,9.50
2007,05,18,03,04,9.50
2007,05,18,03,05,9.50
2007,05,18,03,06,9.50
2007,05,18,03,07,9.40
2007,05,18,03,08,9.40
2007,05,18,03,09,9.40
2007,05,18,03,10,9.40
2007,05,18,03,11,9.40
2007,05,18,03,12,9.30
2007,05,18,03,13,9.30
2007,05,18,03,14,9.30
2007,05,18,03,15,9.30
2007,05,18,03,16,9.20
2007,05,18,03,17,9.20
2007,05,18,03,18,9.20
2007,05,18,03,19,9.20
2007,05,18,03,20,9.20
2007,05,18,03,21,9.20
2007,05,18,03,22,9.20
2007,05,18,03,23,9.20
2007,05,18,03,24,9.20
2007,05,18,03,25,9.10
2007,05,18,03,26,9.10
2007,05,18,03,27,9.10
2007,05,18,03,28,9.10
2007,05,18,03,29,9.10
2007,05,18,03,30,9.10
2007,05,18,03,31,9.00
2007,05,18,03,32,9.00
2007,05,18,03,33,9.00
2007,05,18,03,34,9.00
2007,05,18,03,35,9.00
2007,05,18,03,36,8.90
2007,05,18,03,37,8.90
2007,05,18,03,38,8.90
2007,05,18,03,39,8.90
2007,05,18,03,40,8.90
2007,05,18,03,41,8.80
2007,05,18,03,42,8.80
2007,05,18,03,43,8.80
2007,05,18,03,44,8.80
2007,05,18,03,45,8.80
2007,05,18,03,46,8.80
2007,05,18,03,47,8.80
2007,05,18,03,48,8.80
2007,05,18,03,49,8.80
2007,05,18,03,50,8.80
2007,05,18,03,51,8.80
2007,05,18,03,52,8.80
2007,05,18,03,53,8.80
2007,05,18,03,54,8.80
2007,05,18,03,55,8.80
2007,05,18,03,56,8.80
2007,05,18,03,57,8.80
2007,05,18,03,58,8.80
2007,05,18,03,59,8.80
2007,05,18,04,00,8.70
2007,05,18,04,01,8.70
2007,05,18,04,02,8.70
2007,05,18,04,03,8.70
2007,05,18,04,04,8.70
2007,05,18,04,05,8.70
2007,05,18,04,06,8.70
2007,05,18,04,07,8.70
2007,05,18,04,08,8.70
2007,05,18,04,09,8.70
2007,05,18,04,10,8.70
2007,05,18,04,11,8.70
2007,05,18,04,12,8.70
2007,05,18,04,13,8.60
2007,05,18,04,14,8.60
2007,05,18,04,15,8.60
2007,05,18,04,16,8.60
2007,05,18,04,17,8.60
2007,05,18,04,18,8.50
2007,05,18,04,19,8.50
2007,05,18,04,20,8.50
2007,05,18,04,21,8.50
2007,05,18,04,22,8.50
2007,05,18,04,23,8.40
2007,05,18,04,24,8.40
2007,05,18,04,25,8.40
2007,05,18,04,26,8.40
2007,05,18,04,27,8.40
2007,05,18,04,28,8.40
2007,05,18,04,29,8.30
2007,05,18,04,30,8.30
2007,05,18,04,31,8.30
2007,05,18,04,32,8.30
2007,05,18,04,33,8.20
2007,05,18,04,34,8.20
2007,05,18,04,35,8.20
2007,05,18,04,36,8.20
2007,05,18,04,37,8.20
2007,05,18,04,38,8.10
2007,05,18,04,39,8.10
2007,05,18,04,40,8.10
2007,05,18,04,41,8.10
2007,05,18,04,42,8.00
2007,05,18,04,43,8.00
2007,05,18,04,44,8.00
2007,05,18,04,45,8.00
2007,05,18,04,46,7.90
2007,05,18,04,47,7.90
2007,05,18,04,48,7.90
2007,05,18,04,49,7.90
2007,05,18,04,50,7.90
2007,05,18,04,51,7.90
2007,05,18,04,52,7.80
2007,05,18,04,53,7.80
2007,05,18,04,54,7.80
2007,05,18,04,55,7.80
2007,05,18,04,56,7.80
2007,05,18,04,57,7.80
2007,05,18,04,58,7.80
2007,05,18,04,59,7.80
2007,05,18,05,00,7.80
2007,05,18,05,01,7.80
2007,05,18,05,02,7.80
2007,05,18,05,03,7.80
2007,05,18,05,04,7.80
2007,05,18,05,05,7.70
2007,05,18,05,06,7.70
2007,05,18,05,07,7.70
2007,05,18,05,08,7.70
2007,05,18,05,09,7.70
2007,05,18,05,10,7.70
2007,05,18,05,11,7.60
2007,05,18,05,12,7.60
2007,05,18,05,13,7.60
2007,05,18,05,14,7.60
2007,05,18,05,15,7.60
2007,05,18,05,16,7.60
2007,05,18,05,17,7.60
2007,05,18,05,18,7.60
2007,05,18,05,19,7.50
2007,05,18,05,20,7.50
2007,05,18,05,21,7.50
2007,05,18,05,22,7.50
2007,05,18,05,23,7.50
2007,05,18,05,24,7.50
2007,05,18,05,25,7.50
2007,05,18,05,26,7.50
2007,05,18,05,27,7.50
2007,05,18,05,28,7.40
2007,05,18,05,29,7.40
2007,05,18,05,30,7.40
2007,05,18,05,31,7.40
2007,05,18,05,32,7.40
2007,05,18,05,33,7.40
2007,05,18,05,34,7.40
2007,05,18,05,35,7.40
2007,05,18,05,36,7.40
2007,05,18,05,37,7.40
2007,05,18,05,38,7.30
2007,05,18,05,39,7.30
2007,05,18,05,40,7.30
2007,05,18,05,41,7.30
2007,05,18,05,42,7.30
2007,05,18,05,43,7.30
2007,05,18,05,44,7.30
2007,05,18,05,45,7.30
2007,05,18,05,46,7.30
2007,05,18,05,47,7.30
2007,05,18,05,48,7.30
2007,05,18,05,49,7.30
2007,05,18,05,50,7.30
2007,05,18,05,51,7.30
2007,05,18,05,52,7.30
2007,05,18,05,53,7.30
2007,05,18,05,54,7.30
2007,05,18,05,55,7.30
2007,05,18,05,56,7.30
2007,05,18,05,57,7.30
2007,05,18,05,58,7.30
2007,05,18,05,59,7.30
2007,05,18,06,00,7.30
2007,05,18,06,01,7.30
2007,05,18,06,02,7.30
2007,05,18,06,03,7.30
2007,05,18,06,04,7.30
2007,05,18,06,05,7.30
2007,05,18,06,06,7.30
2007,05,18,06,07,7.30
2007,05,18,06,08,7.30
2007,05,18,06,09,7.30
2007,05,18,06,10,7.30
2007,05,18,06,11,7.30
2007,05,18,06,12,7.30
2007,05,18,06,13,7.30
2007,05,18,06,14,7.30
2007,05,18,06,15,7.30
2007,05,18,06,16,7.30
2007,05,18,06,17,7.30
2007,05,18,06,18,7.30
2007,05,18,06,19,7.30
2007,05,18,06,20,7.30
2007,05,18,06,21,7.30
2007,05,18,06,22,7.30
2007,05,18,06,23,7.30
2007,05,18,06,24,7.30
2007,05,18,06,25,7.30
2007,05,18,06,26,7.30
2007,05,18,06,27,7.30
2007,05,18,06,28,7.30
2007,05,18,06,29,7.30
2007,05,18,06,30,7.30
2007,05,18,06,31,7.30
2007,05,18,06,32,7.30
2007,05,18,06,33,7.30
2007,05,18,06,34,7.30
2007,05,18,06,35,7.30
2007,05,18,06,36,7.30
2007,05,18,06,37,7.30
2007,05,18,06,38,7.40
2007,05,18,06,39,7.40
2007,05,18,06,40,7.40
2007,05,18,06,41,7.40
2007,05,18,06,42,7.40
2007,05,18,06,43,7.40
2007,05,18,06,44,7.40
2007,05,18,06,45,7.50
2007,05,18,06,46,7.50
2007,05,18,06,47,7.50
2007,05,18,06,48,7.50
2007,05,18,06,49,7.50
2007,05,18,06,50,7.50
2007,05,18,06,51,7.60
2007,05,18,06,52,7.60
2007,05,18,06,53,7.60
2007,05,18,06,54,7.60
2007,05,18,06,55,7.70
2007,05,18,06,56,7.70
2007,05,18,06,57,7.70
2007,05,18,06,58,7.70
2007,05,18,06,59,7.80
2007,05,18,07,00,7.80
2007,05,18,07,01,7.80
2007,05,18,07,02,7.80
2007,05,18,07,03,7.80
2007,05,18,07,04,7.80
2007,05,18,07,05,7.80
2007,05,18,07,06,7.80
2007,05,18,07,07,7.90
2007,05,18,07,08,7.90
2007,05,18,07,09,7.90
2007,05,18,07,10,7.90
2007,05,18,07,11,7.90
2007,05,18,07,12,8.00
2007,05,18,07,13,8.00
2007,05,18,07,14,8.00
2007,05,18,07,15,8.00
2007,05,18,07,16,8.10
2007,05,18,07,17,8.10
2007,05,18,07,18,8.10
2007,05,18,07,19,8.20
2007,05,18,07,20,8.20
2007,05,18,07,21,8.20
2007,05,18,07,22,8.20
2007,05,18,07,23,8.20
2007,05,18,07,24,8.20
2007,05,18,07,25,8.30
2007,05,18,07,26,8.30
2007,05,18,07,27,8.30
2007,05,18,07,28,8.40
2007,05,18,07,29,8.40
2007,05,18,07,30,8.40
2007,05,18,07,31,8.40
2007,05,18,07,32,8.50
2007,05,18,07,33,8.50
2007,05,18,07,34,8.50
2007,05,18,07,35,8.60
2007,05,18,07,36,8.60
2007,05,18,07,37,8.60
2007,05,18,07,38,8.70
2007,05,18,07,39,8.70
2007,05,18,07,40,8.70
2007,05,18,07,41,8.80
2007,05,18,07,42,8.80
2007,05,18,07,43,8.90
2007,05,18,07,44,8.90
2007,05,18,07,45,8.90
2007,05,18,07,46,9.00
2007,05,18,07,47,9.00
2007,05,18,07,48,9.10
2007,05,18,07,49,9.10
2007,05,18,07,50,9.10
2007,05,18,07,51,9.20
2007,05,18,07,52,9.20
2007,05,18,07,53,9.30
2007,05,18,07,54,9.40
2007,05,18,07,55,9.40
2007,05,18,07,56,9.50
2007,05,18,07,57,9.60
2007,05,18,07,58,9.70
2007,05,18,07,59,9.70
2007,05,18,08,00,9.70
2007,05,18,08,01,9.80
2007,05,18,08,02,9.80
2007,05,18,08,03,9.80
2007,05,18,08,04,9.90
2007,05,18,08,05,9.90
2007,05,18,08,06,9.90
2007,05,18,08,07,9.90
2007,05,18,08,08,10.00
2007,05,18,08,09,10.10
2007,05,18,08,10,10.20
2007,05,18,08,11,10.20
2007,05,18,08,12,10.30
2007,05,18,08,13,10.30
2007,05,18,08,14,10.40
2007,05,18,08,15,10.40
2007,05,18,08,16,10.40
2007,05,18,08,17,10.40
2007,05,18,08,18,10.60
2007,05,18,08,19,10.60
2007,05,18,08,20,10.60
2007,05,18,08,21,10.60
2007,05,18,08,22,10.60
2007,05,18,08,23,10.60
2007,05,18,08,24,10.60
2007,05,18,08,25,10.60
2007,05,18,08,26,10.60
2007,05,18,08,27,10.60
2007,05,18,08,28,10.60
2007,05,18,08,29,10.60
2007,05,18,08,30,10.70
2007,05,18,08,31,10.70
2007,05,18,08,32,10.80
2007,05,18,08,33,10.80
2007,05,18,08,34,10.90
2007,05,18,08,35,10.90
2007,05,18,08,36,10.90
2007,05,18,08,37,10.90
2007,05,18,08,38,10.90
2007,05,18,08,39,10.90
2007,05,18,08,40,10.90
2007,05,18,08,41,11.00
2007,05,18,08,42,11.10
2007,05,18,08,43,11.10
2007,05,18,08,44,11.10
2007,05,18,08,45,11.10
2007,05,18,08,46,11.20
2007,05,18,08,47,11.30
2007,05,18,08,48,11.30
2007,05,18,08,49,11.30
2007,05,18,08,50,11.40
2007,05,18,08,51,11.40
2007,05,18,08,52,11.40
2007,05,18,08,53,11.40
2007,05,18,08,54,11.40
2007,05,18,08,55,11.40
2007,05,18,08,56,11.50
2007,05,18,08,57,11.60
2007,05,18,08,58,11.60
2007,05,18,08,59,11.60
2007,05,18,09,00,11.70
2007,05,18,09,01,11.80
2007,05,18,09,02,11.80
2007,05,18,09,03,11.80
2007,05,18,09,04,11.80
2007,05,18,09,05,11.80
2007,05,18,09,06,11.80
2007,05,18,09,07,11.80
2007,05,18,09,08,11.80
2007,05,18,09,09,11.80
2007,05,18,09,10,11.80
2007,05,18,09,11,11.80
2007,05,18,09,12,11.80
2007,05,18,09,13,11.80
2007,05,18,09,14,11.80
2007,05,18,09,15,11.80
2007,05,18,09,16,11.90
2007,05,18,09,17,11.90
2007,05,18,09,18,11.90
2007,05,18,09,19,11.90
2007,05,18,09,20,12.00
2007,05,18,09,21,12.00
2007,05,18,09,22,12.10
2007,05,18,09,23,12.10
2007,05,18,09,24,12.20
2007,05,18,09,25,12.30
2007,05,18,09,26,12.30
2007,05,18,09,27,12.30
2007,05,18,09,28,12.30
2007,05,18,09,29,12.40
2007,05,18,09,30,12.50
2007,05,18,09,31,12.60
2007,05,18,09,32,12.70
2007,05,18,09,33,12.80
2007,05,18,09,34,12.80
2007,05,18,09,35,12.80
2007,05,18,09,36,12.80
2007,05,18,09,37,12.80
2007,05,18,09,38,12.80
2007,05,18,09,39,12.80
2007,05,18,09,40,12.80
2007,05,18,09,41,12.80
2007,05,18,09,42,12.90
2007,05,18,09,43,12.90
2007,05,18,09,44,12.90
2007,05,18,09,45,12.90
2007,05,18,09,46,12.90
2007,05,18,09,47,12.90
2007,05,18,09,48,12.90
2007,05,18,09,49,13.00
2007,05,18,09,50,13.00
2007,05,18,09,51,13.00
2007,05,18,09,52,13.10
2007,05,18,09,53,13.20
2007,05,18,09,54,13.20
2007,05,18,09,55,13.20
2007,05,18,09,56,13.30
2007,05,18,09,57,13.30
2007,05,18,09,58,13.30
2007,05,18,09,59,13.30
2007,05,18,10,00,13.30
2007,05,18,10,01,13.30
2007,05,18,10,02,13.40
2007,05,18,10,03,13.50
2007,05,18,10,04,13.50
2007,05,18,10,05,13.50
2007,05,18,10,06,13.60
2007,05,18,10,07,13.50
2007,05,18,10,08,13.50
2007,05,18,10,09,13.50
2007,05,18,10,10,13.50
2007,05,18,10,11,13.30
2007,05,18,10,12,13.30
2007,05,18,10,13,13.30
2007,05,18,10,14,13.30
2007,05,18,10,15,13.40
2007,05,18,10,16,13.40
2007,05,18,10,17,13.40
2007,05,18,10,18,13.40
2007,05,18,10,19,13.40
2007,05,18,10,20,13.50
2007,05,18,10,21,13.50
2007,05,18,10,22,13.50
2007,05,18,10,23,13.50
2007,05,18,10,24,13.50
2007,05,18,10,25,13.50
2007,05,18,10,26,13.50
2007,05,18,10,27,13.50
2007,05,18,10,28,13.40
2007,05,18,10,29,13.30
2007,05,18,10,30,13.30
2007,05,18,10,31,13.30
2007,05,18,10,32,13.30
2007,05,18,10,33,13.20
2007,05,18,10,34,13.20
2007,05,18,10,35,13.30
2007,05,18,10,36,13.30
2007,05,18,10,37,13.30
2007,05,18,10,38,13.30
2007,05,18,10,39,13.30
2007,05,18,10,40,13.30
2007,05,18,10,41,13.30
2007,05,18,10,42,13.50
2007,05,18,10,43,13.60
2007,05,18,10,44,13.70
2007,05,18,10,45,13.80
2007,05,18,10,46,13.90
2007,05,18,10,47,13.90
2007,05,18,10,48,14.00
2007,05,18,10,49,14.00
2007,05,18,10,50,14.00
2007,05,18,10,51,13.90
2007,05,18,10,52,13.80
2007,05,18,10,53,13.80
2007,05,18,10,54,13.80
2007,05,18,10,55,13.90
2007,05,18,10,56,13.90
2007,05,18,10,57,13.90
2007,05,18,10,58,14.00
2007,05,18,10,59,14.00
2007,05,18,11,00,14.10
2007,05,18,11,01,14.20
2007,05,18,11,02,14.10
2007,05,18,11,03,13.90
2007,05,18,11,04,13.70
2007,05,18,11,05,13.70
2007,05,18,11,06,13.60
2007,05,18,11,07,13.60
2007,05,18,11,08,13.60
2007,05,18,11,09,13.70
2007,05,18,11,10,13.70
2007,05,18,11,11,13.70
2007,05,18,11,12,13.70
2007,05,18,11,13,13.80
2007,05,18,11,14,13.90
2007,05,18,11,15,13.80
2007,05,18,11,16,13.80
2007,05,18,11,17,13.70
2007,05,18,11,18,13.70
2007,05,18,11,19,13.70
2007,05,18,11,20,13.70
2007,05,18,11,21,13.80
2007,05,18,11,22,13.80
2007,05,18,11,23,13.70
2007,05,18,11,24,13.70
2007,05,18,11,25,13.70
2007,05,18,11,26,13.70
2007,05,18,11,27,13.70
2007,05,18,11,28,13.70
2007,05,18,11,29,13.70
2007,05,18,11,30,13.70
2007,05,18,11,31,13.70
2007,05,18,11,32,13.70
2007,05,18,11,33,13.80
2007,05,18,11,34,13.80
2007,05,18,11,35,13.80
2007,05,18,11,36,13.90
2007,05,18,11,37,13.90
2007,05,18,11,38,13.90
2007,05,18,11,39,14.00
2007,05,18,11,40,14.00
2007,05,18,11,41,14.10
2007,05,18,11,42,14.20
2007,05,18,11,43,14.20
2007,05,18,11,44,14.40
2007,05,18,11,45,14.60
2007,05,18,11,46,14.60
2007,05,18,11,47,14.70
2007,05,18,11,48,14.70
2007,05,18,11,49,14.70
2007,05,18,11,50,14.60
2007,05,18,11,51,14.60
2007,05,18,11,52,14.70
2007,05,18,11,53,14.70
2007,05,18,11,54,14.70
2007,05,18,11,55,14.80
2007,05,18,11,56,15.00
2007,05,18,11,57,15.00
2007,05,18,11,58,15.10
2007,05,18,11,59,15.10
2007,05,18,12,00,15.20
2007,05,18,12,01,15.30
2007,05,18,12,02,15.40
2007,05,18,12,03,15.40
2007,05,18,12,04,15.50
2007,05,18,12,05,15.50
2007,05,18,12,06,15.50
2007,05,18,12,07,15.50
2007,05,18,12,08,15.50
2007,05,18,12,09,15.60
2007,05,18,12,10,15.60
2007,05,18,12,11,15.80
2007,05,18,12,12,15.80
2007,05,18,12,13,15.80
2007,05,18,12,14,15.80
2007,05,18,12,15,15.70
2007,05,18,12,16,15.60
2007,05,18,12,17,15.60
2007,05,18,12,18,15.60
2007,05,18,12,19,15.70
2007,05,18,12,20,15.70
2007,05,18,12,21,15.70
2007,05,18,12,22,15.80
2007,05,18,12,23,15.80
2007,05,18,12,24,15.80
2007,05,18,12,25,15.80
2007,05,18,12,26,15.80
2007,05,18,12,27,15.80
2007,05,18,12,28,15.80
2007,05,18,12,29,15.80
2007,05,18,12,30,15.80
2007,05,18,12,31,15.70
2007,05,18,12,32,15.60
2007,05,18,12,33,15.50
2007,05,18,12,34,15.50
2007,05,18,12,35,15.50
2007,05,18,12,36,15.60
2007,05,18,12,37,15.70
2007,05,18,12,38,15.80
2007,05,18,12,39,15.90
2007,05,18,12,40,16.10
2007,05,18,12,41,16.10
2007,05,18,12,42,16.20
2007,05,18,12,43,16.30
2007,05,18,12,44,16.20
2007,05,18,12,45,16.20
2007,05,18,12,46,16.20
2007,05,18,12,47,16.10
2007,05,18,12,48,16.00
2007,05,18,12,49,15.80
2007,05,18,12,50,15.80
2007,05,18,12,51,15.80
2007,05,18,12,52,15.90
2007,05,18,12,53,15.80
2007,05,18,12,54,15.80
2007,05,18,12,55,15.80
2007,05,18,12,56,15.70
2007,05,18,12,57,15.70
2007,05,18,12,58,15.80
2007,05,18,12,59,15.80
2007,05,18,13,00,15.80
2007,05,18,13,01,15.80
2007,05,18,13,02,15.80
2007,05,18,13,03,15.80
2007,05,18,13,04,15.80
2007,05,18,13,05,15.80
2007,05,18,13,06,15.90
2007,05,18,13,07,15.80
2007,05,18,13,08,15.80
2007,05,18,13,09,15.80
2007,05,18,13,10,15.80
2007,05,18,13,11,15.90
2007,05,18,13,12,16.00
2007,05,18,13,13,16.10
2007,05,18,13,14,16.10
2007,05,18,13,15,16.10
2007,05,18,13,16,16.00
2007,05,18,13,17,15.90
2007,05,18,13,18,15.80
2007,05,18,13,19,15.80
2007,05,18,13,20,15.80
2007,05,18,13,21,15.80
2007,05,18,13,22,15.90
2007,05,18,13,23,15.90
2007,05,18,13,24,16.00
2007,05,18,13,25,16.10
2007,05,18,13,26,16.20
2007,05,18,13,27,16.20
2007,05,18,13,28,16.30
2007,05,18,13,29,16.40
2007,05,18,13,30,16.40
2007,05,18,13,31,16.40
2007,05,18,13,32,16.40
2007,05,18,13,33,16.30
2007,05,18,13,34,16.20
2007,05,18,13,35,16.20
2007,05,18,13,36,16.20
2007,05,18,13,37,16.10
2007,05,18,13,38,16.10
2007,05,18,13,39,16.00
2007,05,18,13,40,15.90
2007,05,18,13,41,15.90
2007,05,18,13,42,15.80
2007,05,18,13,43,15.80
2007,05,18,13,44,15.80
2007,05,18,13,45,15.90
2007,05,18,13,46,16.00
2007,05,18,13,47,16.10
2007,05,18,13,48,16.20
2007,05,18,13,49,16.20
2007,05,18,13,50,16.30
2007,05,18,13,51,16.30
2007,05,18,13,52,16.40
2007,05,18,13,53,16.40
2007,05,18,13,54,16.40
2007,05,18,13,55,16.60
2007,05,18,13,56,16.70
2007,05,18,13,57,16.80
2007,05,18,13,58,16.80
2007,05,18,13,59,16.60
2007,05,18,14,00,16.40
2007,05,18,14,01,16.40
2007,05,18,14,02,16.40
2007,05,18,14,03,16.30
2007,05,18,14,04,16.40
2007,05,18,14,05,16.40
2007,05,18,14,06,16.60
2007,05,18,14,07,16.60
2007,05,18,14,08,16.40
2007,05,18,14,09,16.40
2007,05,18,14,10,16.40
2007,05,18,14,11,16.40
2007,05,18,14,12,16.40
2007,05,18,14,13,16.40
2007,05,18,14,14,16.40
2007,05,18,14,15,16.40
2007,05,18,14,16,16.50
2007,05,18,14,17,16.60
2007,05,18,14,18,16.40
2007,05,18,14,19,16.40
2007,05,18,14,20,16.40
2007,05,18,14,21,16.40
2007,05,18,14,22,16.30
2007,05,18,14,23,16.30
2007,05,18,14,24,16.20
2007,05,18,14,25,16.20
2007,05,18,14,26,16.20
2007,05,18,14,27,16.20
2007,05,18,14,28,16.30
2007,05,18,14,29,16.40
2007,05,18,14,30,16.40
2007,05,18,14,31,16.40
2007,05,18,14,32,16.40
2007,05,18,14,33,16.40
2007,05,18,14,34,16.30
2007,05,18,14,35,16.20
2007,05,18,14,36,16.10
2007,05,18,14,37,16.10
2007,05,18,14,38,16.10
2007,05,18,14,39,16.10
2007,05,18,14,40,16.30
2007,05,18,14,41,16.40
2007,05,18,14,42,16.40
2007,05,18,14,43,16.30
2007,05,18,14,44,16.20
2007,05,18,14,45,16.20
2007,05,18,14,46,16.20
2007,05,18,14,47,16.10
2007,05,18,14,48,16.20
2007,05,18,14,49,16.20
2007,05,18,14,50,16.20
2007,05,18,14,51,16.10
2007,05,18,14,52,16.10
2007,05,18,14,53,16.10
2007,05,18,14,54,16.10
2007,05,18,14,55,16.10
2007,05,18,14,56,16.00
2007,05,18,14,57,15.90
2007,05,18,14,58,15.90
2007,05,18,14,59,15.90
2007,05,18,15,00,16.00
2007,05,18,15,01,16.10
2007,05,18,15,02,16.20
2007,05,18,15,03,16.40
2007,05,18,15,04,16.50
2007,05,18,15,05,16.60
2007,05,18,15,06,16.60
2007,05,18,15,07,16.60
2007,05,18,15,08,16.80
2007,05,18,15,09,16.90
2007,05,18,15,10,17.00
2007,05,18,15,11,17.00
2007,05,18,15,12,17.00
2007,05,18,15,13,16.90
2007,05,18,15,14,16.80
2007,05,18,15,15,16.90
2007,05,18,15,16,17.00
2007,05,18,15,17,17.10
2007,05,18,15,18,17.30
2007,05,18,15,19,17.30
2007,05,18,15,20,17.10
2007,05,18,15,21,17.00
2007,05,18,15,22,17.00
2007,05,18,15,23,17.00
2007,05,18,15,24,16.90
2007,05,18,15,25,16.90
2007,05,18,15,26,17.00
2007,05,18,15,27,17.00
2007,05,18,15,28,17.00
2007,05,18,15,29,17.00
2007,05,18,15,30,16.90
2007,05,18,15,31,16.90
2007,05,18,15,32,16.90
2007,05,18,15,33,16.80
2007,05,18,15,34,16.80
2007,05,18,15,35,16.80
2007,05,18,15,36,16.70
2007,05,18,15,37,16.60
2007,05,18,15,38,16.50
2007,05,18,15,39,16.40
2007,05,18,15,40,16.40
2007,05,18,15,41,16.40
2007,05,18,15,42,16.40
2007,05,18,15,43,16.40
2007,05,18,15,44,16.30
2007,05,18,15,45,16.30
2007,05,18,15,46,16.20
2007,05,18,15,47,16.10
2007,05,18,15,48,16.10
2007,05,18,15,49,16.10
2007,05,18,15,50,16.00
2007,05,18,15,51,15.90
2007,05,18,15,52,15.80
2007,05,18,15,53,15.80
2007,05,18,15,54,15.70
2007,05,18,15,55,15.80
2007,05,18,15,56,15.70
2007,05,18,15,57,15.70
2007,05,18,15,58,15.60
2007,05,18,15,59,15.50
2007,05,18,16,00,15.40
2007,05,18,16,01,15.40
2007,05,18,16,02,15.40
2007,05,18,16,03,15.40
2007,05,18,16,04,15.50
2007,05,18,16,05,15.50
2007,05,18,16,06,15.60
2007,05,18,16,07,15.60
2007,05,18,16,08,15.70
2007,05,18,16,09,15.70
2007,05,18,16,10,15.70
2007,05,18,16,11,15.70
2007,05,18,16,12,15.70
2007,05,18,16,13,15.60
2007,05,18,16,14,15.60
2007,05,18,16,15,15.50
2007,05,18,16,16,15.50
2007,05,18,16,17,15.40
2007,05,18,16,18,15.30
2007,05,18,16,19,15.30
2007,05,18,16,20,15.40
2007,05,18,16,21,15.30
2007,05,18,16,22,15.20
2007,05,18,16,23,15.20
2007,05,18,16,24,15.10
2007,05,18,16,25,15.10
2007,05,18,16,26,15.10
2007,05,18,16,27,15.00
2007,05,18,16,28,15.00
2007,05,18,16,29,15.00
2007,05,18,16,30,14.90
2007,05,18,16,31,14.90
2007,05,18,16,32,14.90
2007,05,18,16,33,14.90
2007,05,18,16,34,14.90
2007,05,18,16,35,15.00
2007,05,18,16,36,15.00
2007,05,18,16,37,15.00
2007,05,18,16,38,15.00
2007,05,18,16,39,15.00
2007,05,18,16,40,15.10
2007,05,18,16,41,15.10
2007,05,18,16,42,15.10
2007,05,18,16,43,15.10
2007,05,18,16,44,15.10
2007,05,18,16,45,15.10
2007,05,18,16,46,15.10
2007,05,18,16,47,15.10
2007,05,18,16,48,15.10
2007,05,18,16,49,15.10
2007,05,18,16,50,15.10
2007,05,18,16,51,15.10
2007,05,18,16,52,15.10
2007,05,18,16,53,15.20
2007,05,18,16,54,15.20
2007,05,18,16,55,15.20
2007,05,18,16,56,15.30
2007,05,18,16,57,15.30
2007,05,18,16,58,15.30
2007,05,18,16,59,15.30
2007,05,18,17,00,15.30
2007,05,18,17,01,15.30
2007,05,18,17,02,15.30
2007,05,18,17,03,15.30
2007,05,18,17,04,15.40
2007,05,18,17,05,15.40
2007,05,18,17,06,15.40
2007,05,18,17,07,15.50
2007,05,18,17,08,15.50
2007,05,18,17,09,15.60
2007,05,18,17,10,15.60
2007,05,18,17,11,15.60
2007,05,18,17,12,15.60
2007,05,18,17,13,15.60
2007,05,18,17,14,15.70
2007,05,18,17,15,15.60
2007,05,18,17,16,15.60
2007,05,18,17,17,15.60
2007,05,18,17,18,15.60
2007,05,18,17,19,15.50
2007,05,18,17,20,15.50
2007,05,18,17,21,15.40
2007,05,18,17,22,15.30
2007,05,18,17,23,15.30
2007,05,18,17,24,15.20
2007,05,18,17,25,15.10
2007,05,18,17,26,15.10
2007,05,18,17,27,15.00
2007,05,18,17,28,15.00
2007,05,18,17,29,14.90
2007,05,18,17,30,14.80
2007,05,18,17,31,14.80
2007,05,18,17,32,14.80
2007,05,18,17,33,14.80
2007,05,18,17,34,14.70
2007,05,18,17,35,14.70